Spokane Felts, WA

11:33 AM PDT on June 25, 2017 (GMT -0700)
Felts

Weather History for KSFF - December, 2012

Change the Weather History Date:

Saturday, December 1, 2012

  Actual Average Record
Temperature  
Mean Temperature 46 °F 32 °F  
Max Temperature 52 °F 38 °F 52 °F (2012)
Min Temperature 40 °F 27 °F 17 °F (2014)
Degree Days  
Heating Degree Days 19 33  
Month to date heating degree days 19 33  
Since 1 July heating degree days 1292 1607  
Cooling Degree Days 0 0  
Month to date cooling degree days 0 0  
Year to date cooling degree days 509 406  
Moisture  
Dew Point 36 °F    
Average Humidity 61    
Maximum Humidity 82    
Minimum Humidity 39    
Precipitation  
Precipitation 0.04 in 0.09 in 0.43 in (1998)
Month to date precipitation 0.04 0.09  
Year to date precipitation 18.80 15.31  
Sea Level Pressure  
Sea Level Pressure 29.64 in    
Wind  
Wind Speed 9 mph (SSW)    
Max Wind Speed 28 mph    
Max Gust Speed 33 mph    
Visibility 10 miles    
Events Rain    
T = Trace of Precipitation, MM = Missing Value Source: NWS Daily Summary

Daily Weather History Graph

Daily Weather History Graph

Search for Another Location

Airport or City:

Trip Planner

Search our weather history database for the weather conditions in past years. The results will help you decide how hot, cold, wet, or windy it might be!

Date:

Astronomy

Dec. 01, 2012 Rise Set
Actual Time 7:17 AM PST 3:59 PM PST
Civil Twilight 6:42 AM PST 4:34 PM PST
Nautical Twilight 6:03 AM PST 5:13 PM PST
Astronomical Twilight 5:26 AM PST 5:50 PM PST
Moon 6:57 PM PST (12/1) 9:30 AM PST (12/1)
Length of Visible Light 9h 52m
Length of Day
8h 41m
Waning Gibbous, 91% of the Moon is Illuminated
Dec 1
Waning Gibbous
Dec 6
Last Quarter
Dec 13
New
Dec 19
First Quarter
Dec 28
Full

Hourly Weather History & Observations

Time (PST) Temp. Windchill Dew Point Humidity Pressure Visibility Wind Dir Wind Speed Gust Speed Precip Events Conditions
12:53 AM 46.0 °F - 43.0 °F 89% 29.62 in 9.0 mi Calm Calm - 0.00 in Rain Light Rain
1:53 AM 46.0 °F 43.1 °F 41.0 °F 83% 29.59 in 10.0 mi ENE 5.8 mph - 0.01 in   Overcast
2:53 AM 46.9 °F - 41.0 °F 80% 29.58 in 10.0 mi NE 4.6 mph - N/A   Overcast
3:53 AM 51.8 °F - 37.4 °F 58% 29.57 in 10.0 mi South 10.4 mph - N/A Rain Light Rain
4:53 AM 50.0 °F - 37.4 °F 62% 29.57 in 10.0 mi South 11.5 mph 17.3 mph N/A   Overcast
5:53 AM 50.0 °F - 37.9 °F 63% 29.58 in 10.0 mi SSW 6.9 mph - 0.01 in   Overcast
6:53 AM 51.1 °F - 37.0 °F 59% 29.59 in 10.0 mi SSW 12.7 mph 27.6 mph 0.00 in   Overcast
7:53 AM 48.9 °F - 37.9 °F 66% 29.62 in 10.0 mi SSW 17.3 mph 24.2 mph 0.02 in Rain Light Rain
8:53 AM 48.2 °F - 37.4 °F 66% 29.62 in 10.0 mi SSW 12.7 mph 20.7 mph N/A   Mostly Cloudy
9:53 AM 48.0 °F - 37.9 °F 68% 29.67 in 10.0 mi SSW 12.7 mph 19.6 mph N/A   Mostly Cloudy
10:53 AM 50.0 °F - 37.9 °F 63% 29.68 in 10.0 mi SW 20.7 mph 28.8 mph N/A   Mostly Cloudy
11:53 AM 51.1 °F - 34.0 °F 52% 29.68 in 10.0 mi SW 24.2 mph 33.4 mph N/A   Scattered Clouds
12:53 PM 50.0 °F - 30.0 °F 46% 29.70 in 10.0 mi WSW 17.3 mph 25.3 mph N/A   Scattered Clouds
1:53 PM 50.0 °F - 27.0 °F 41% 29.71 in 10.0 mi WSW 13.8 mph 26.5 mph N/A   Partly Cloudy
2:53 PM 48.0 °F - 30.0 °F 50% 29.72 in 10.0 mi SW 12.7 mph - N/A   Partly Cloudy
3:53 PM 46.0 °F 41.9 °F 32.0 °F 58% 29.71 in 10.0 mi SW 8.1 mph - N/A   Partly Cloudy
4:53 PM 42.1 °F - 33.1 °F 70% 29.72 in 10.0 mi Calm Calm - N/A   Clear
5:53 PM 41.0 °F 39.0 °F 33.1 °F 73% 29.70 in 10.0 mi NE 3.5 mph - N/A   Clear
6:53 PM 41.0 °F 39.0 °F 34.0 °F 76% 29.69 in 10.0 mi NNE 3.5 mph - N/A   Clear
7:53 PM 42.1 °F 40.2 °F 34.0 °F 73% 29.66 in 10.0 mi NNE 3.5 mph - N/A   Overcast
8:53 PM 43.0 °F - 33.1 °F 68% 29.65 in 10.0 mi Calm Calm - N/A   Overcast
9:53 PM 42.1 °F 38.4 °F 36.0 °F 79% 29.60 in 10.0 mi ENE 5.8 mph - 0.00 in   Overcast
10:53 PM 44.1 °F 42.5 °F 35.1 °F 71% 29.57 in 10.0 mi NE 3.5 mph - N/A   Overcast
11:53 PM 46.0 °F 42.5 °F 35.1 °F 66% 29.54 in 10.0 mi SE 6.9 mph - 0.00 in Rain Light Rain